Location: Nairn
(57.5833°N, 3.8667°W)
Time: 22:07:48
(UTC+00:00)

Tiros 1 - Pass Details

Date: 03 October 2022
Orbit: 629 x 662 km, 48.4° (Epoch: 08 December)

Event Time Altitude Azimuth Distance (km) Brightness Sun altitude
Exits shadow 04:57:38 13° 227° (SW) 1,842 9.0 -12.3°
Maximum altitude 04:58:49 14° 210° (SSW) 1,773 9.0 -12.1°
Drops below altitude 10° 05:01:21 10° 177° (S) 2,046 9.6 -11.8°
Sets 05:04:37 0° 154° (SSE) 2,944 10.7 -11.3°
